Regional Weather Roundup
Issued by NWS

Home | Current Version | Previous Version | Graphics & Text | Print | Product List | Glossary On
Versions: 1 2 3 4 5 6 7 8 9 10 11 12 13 14 15 16 17 18 19 20 21 22 23 24 25 26 27 28 29 30 31 32 33 34 35 36 37 38 39 40 41 42 43 44 45 46 47 48 49 50
000
ASUS43 KMKX 011221
RWRWI

WISCONSIN REGIONAL WEATHER ROUNDUP
NATIONAL WEATHER SERVICE MILWAUKEE/SULLIVAN WI
700 AM CDT SAT OCT 01 2016

NOTE: "FAIR" INDICATES FEW OR NO CLOUDS BELOW 12,000 FEET WITH NO
SIGNIFICANT WEATHER AND/OR OBSTRUCTIONS TO VISIBILITY.

WIZ001-002-006>008-014>016-023>028-011300-
NORTHWEST WISCONSIN

CITY           SKY/WX    TMP DP  RH WIND       PRES   REMARKS
SUPERIOR ARPT  FOG       52  52 100 CALM      30.24S VSB 1/2
6HR MIN TEMP:  51; 6HR MAX TEMP:  52;

ASHLAND        FOG       54  54 100 N5        30.24R VSB 1/2
6HR MIN TEMP:  53; 6HR MAX TEMP:  54;

HAYWARD        CLOUDY    50  49  96 NE5       30.22S
6HR MIN TEMP:  47; 6HR MAX TEMP:  50;

SIREN          CLOUDY    51  50  98 E3        30.21S FOG
6HR MIN TEMP:  50; 6HR MAX TEMP:  52;

CUMBERLAND     CLEAR     50  46  87 NE6       30.20S
RICE LAKE      CLEAR     49  48  95 CALM      30.21S
6HR MIN TEMP:  49; 6HR MAX TEMP:  53;

CHETEK         NOT AVBL
LADYSMITH      CLOUDY    51  50  96 N5        30.21S
6HR MIN TEMP:  50; 6HR MAX TEMP:  55;

EAU CLAIRE     PTCLDY    51  50  96 NE3       30.16F
6HR MIN TEMP:  50; 6HR MAX TEMP:  58;

MENOMONIE      CLEAR     52  50  94 N5        30.18S
6HR MIN TEMP:  52; 6HR MAX TEMP:  57;

NEW RICHMOND   CLEAR     47  47 100 CALM      30.19R
6HR MIN TEMP:  47; 6HR MAX TEMP:  53;

OSCEOLA        CLEAR     49  49 100 CALM      30.22R FOG
6HR MIN TEMP:  49; 6HR MAX TEMP:  55;

$$

WIZ003>005-009-010-017-018-011300-
NORTH CENTRAL WISCONSIN

CITY           SKY/WX    TMP DP  RH WIND       PRES   REMARKS
MANITOWISH WTR NOT AVBL
ARBOR VITAE    CLOUDY    52  50  93 CALM      30.21S
6HR MIN TEMP:  52; 6HR MAX TEMP:  55;

WOODRUFF       CLOUDY    52  50  93 CALM      30.21S
6HR MIN TEMP:  52; 6HR MAX TEMP:  55;

RHINELANDER    CLOUDY    52  51  97 NE3       30.21R
6HR MIN TEMP:  52; 6HR MAX TEMP:  54;

EAGLE RIVER    CLOUDY    52  51  97 CALM      30.21R
6HR MIN TEMP:  50; 6HR MAX TEMP:  55;

LAND O LAKES   CLOUDY    53  49  88 CALM      30.23R
6HR MIN TEMP:  47; 6HR MAX TEMP:  53; 6HR PCP:  0.01;

PHILLIPS       CLOUDY    51  50  97 CALM      30.20S
6HR MIN TEMP:  47; 6HR MAX TEMP:  51;

TOMAHAWK       CLOUDY    47  45  94 CALM      30.20R
6HR MIN TEMP:  47; 6HR MAX TEMP:  53;

MEDFORD        CLOUDY    51  51 100 N5        30.18S
6HR MIN TEMP:  49; 6HR MAX TEMP:  52;

MERRILL        CLOUDY    52  52  99 CALM      30.19S
6HR MIN TEMP:  51; 6HR MAX TEMP:  55;

$$

WIZ029-030-035-036-043>047-011300-
CENTRAL WISCONSIN

CITY           SKY/WX    TMP DP  RH WIND       PRES   REMARKS
WAUSAU         CLOUDY    56  53  90 NE5       30.15S
6HR MIN TEMP:  53; 6HR MAX TEMP:  57; 6HR PCP: TRACE;

MOSINEE        CLOUDY    54  54 100 NE6       30.17S
MARSHFIELD     CLOUDY    56  52  86 NE8       30.15S
6HR MIN TEMP:  55; 6HR MAX TEMP:  60;

STEVENS POINT  MOCLDY    55  55 100 NE6       30.15S
6HR MIN TEMP:  55; 6HR MAX TEMP:  57;

WAUPACA        CLOUDY    59  58  97 N6        30.13S
6HR MIN TEMP:  59; 6HR MAX TEMP:  61;

WAUTOMA        CLOUDY    58  57  97 NE7       30.13R
6HR MIN TEMP:  58; 6HR MAX TEMP:  58; 6HR PCP:  0.01;

WISC RAPIDS    CLOUDY    58  56  93 NE6       30.15S
6HR MIN TEMP:  58; 6HR MAX TEMP:  60; 6HR PCP: TRACE;

CAMP DOUGLAS   CLOUDY    57  56  97 VRB5      30.12S
6HR MIN TEMP:  57; 6HR MAX TEMP:  58; 6HR PCP: TRACE;

$$

WIZ011>013-019>022-031-037>040-048>050-011300-
NORTHEAST WISCONSIN

CITY           SKY/WX    TMP DP  RH WIND       PRES   REMARKS
ANTIGO         CLOUDY    53  53  98 CALM      30.18R
6HR MIN TEMP:  53; 6HR MAX TEMP:  55;

SHAWANO        CLOUDY    58  56  90 NE8       30.15S
6HR MIN TEMP:  58; 6HR MAX TEMP:  61;

OCONTO         NOT AVBL
STURGEON BAY   CLOUDY    60  55  83 E6        30.14S
6HR MIN TEMP:  59; 6HR MAX TEMP:  61; 6HR PCP: TRACE;

GREEN BAY      CLOUDY    61  58  90 NE8       30.12S
6HR MIN TEMP:  60; 6HR MAX TEMP:  61; 6HR PCP:  0.01;

MANITOWOC      CLOUDY    58  56  93 MISG      30.11S
6HR MIN TEMP:  58; 6HR MAX TEMP:  60;

APPLETON       CLOUDY    57  57 100 N8        30.11S
CLINTONVILLE   CLOUDY    55  55 100 N6        30.14S
OSHKOSH        CLOUDY    59  57  93 NE13      30.10S
6HR MIN TEMP:  59; 6HR MAX TEMP:  61; 6HR PCP:  0.02;

$$

WIZ032>034-041-042-053>061-011300-
SOUTHWEST WISCONSIN

CITY           SKY/WX    TMP DP  RH WIND       PRES   REMARKS
LA CROSSE      CLOUDY    60  56  86 N5        30.12S
6HR MIN TEMP:  60; 6HR MAX TEMP:  63; 6HR PCP: TRACE;

SPARTA         CLOUDY    56  55  96 CALM      30.13S
6HR MIN TEMP:  56; 6HR MAX TEMP:  58;

VIROQUA        CLOUDY    56  56 100 N6        30.11S
6HR MIN TEMP:  56; 6HR MAX TEMP:  57;

BOSCOBEL       CLOUDY    60  58  92 NE3       30.10S
6HR MIN TEMP:  60; 6HR MAX TEMP:  61; 6HR PCP:  0.01;

PRAIRIE DU CHI CLOUDY    59  56  89 NW3       30.09S
6HR MIN TEMP:  59; 6HR MAX TEMP:  60;

PLATTEVILLE    CLOUDY    59  59 100 N7        30.07F
6HR MIN TEMP:  58; 6HR MAX TEMP:  59; 6HR PCP:  0.02;

$$

WIZ056-057-062-063-064-067-068-011300-
SOUTH CENTRAL WISCONSIN

CITY           SKY/WX    TMP DP  RH WIND       PRES   REMARKS
REEDSBURG      NOT AVBL
BARABOO/DELLS  CLOUDY    57  56  96 NE7       30.10R
6HR MIN TEMP:  57; 6HR MAX TEMP:  58; 6HR PCP:  0.04;

LONE ROCK      CLOUDY    60  58  92 N7        30.09S
6HR MIN TEMP:  59; 6HR MAX TEMP:  60; 6HR PCP:  0.03;

MINERAL POINT  CLOUDY    59  59 100 N6        30.08S
MADISON        CLOUDY    59  58  96 NE10      30.07S
6HR MIN TEMP:  59; 6HR MAX TEMP:  60; 6HR PCP:  0.02;

MIDDLETON      CLOUDY    60  60 100 NE7       30.08S
6HR MIN TEMP:  60; 6HR MAX TEMP:  60;

WATERTOWN      CLOUDY    58  58 100 NE3       30.07S
6HR MIN TEMP:  58; 6HR MAX TEMP:  59; 6HR PCP:  0.11;

MONROE         CLOUDY    59  57  94 N8        30.06R
JANESVILLE     MOCLDY    61  59  94 N6        30.04S
$$

WIZ051-052-058>065-066-070>072-011300-
SOUTHEAST WISCONSIN

CITY           SKY/WX    TMP DP  RH WIND       PRES   REMARKS
MILWAUKEE      CLOUDY    61  58  90 NE10      30.06S
6HR MIN TEMP:  60; 6HR MAX TEMP:  63; 6HR PCP:  0.04;

WAUKESHA       RAIN      57  57 100 NE5       30.08S
MILWAUKEE/TIMM CLOUDY    59  55  88 N12       30.07S
RACINE         CLOUDY    60  58  92 N5        30.06S
6HR MIN TEMP:  58; 6HR MAX TEMP:  62; 6HR PCP: TRACE;

BURLINGTON     CLOUDY    57  57  99 CALM      30.05S
6HR MIN TEMP:  56; 6HR MAX TEMP:  58;

KENOSHA        CLOUDY    60  58  92 N5        30.04S
6HR MIN TEMP:  57; 6HR MAX TEMP:  62;

FOND DU LAC    LGT RAIN  59  57  93 NE8       30.10R
6HR MIN TEMP:  59; 6HR MAX TEMP:  61; 6HR PCP:  0.01;

SHEBOYGAN      CLOUDY    58  56  93 NE9       30.09S
6HR MIN TEMP:  58; 6HR MAX TEMP:  60; 6HR PCP:  0.06;

WEST BEND      CLOUDY    68  68 100 NE7       30.08S
JUNEAU         CLOUDY    58  56  96 N6        30.09S
6HR MIN TEMP:  58; 6HR MAX TEMP:  59; 6HR PCP:  0.03;

$$

LSZ147-162-011300-
LAKE SUPERIOR

STATION/POSITION TIME  TEMP    WIND        PRES    WAVE
                       AIR SEA DIR/SP/G            HT/PER
                 (UTC) (F)     (DEG/KT/KT) (MB)    (FT/S)
W MID LAKE BUOY  1150   57 56   30/ 10/ 10 1023.4R   1/ 4
DEVILS ISLAND    1200   54      70/  8/  9 1024.0R
SAXON HARBOR     1140   51     190/  4/  5 1023.4R
$$

LMZ867-665-643>646-011300-
LAKE MICHIGAN

STATION/POSITION TIME  TEMP    WIND        PRES    WAVE
                       AIR SEA DIR/SP/G            HT/PER
                 (UTC) (F)     (DEG/KT/KT) (MB)    (FT/S)
CHAMBERS ISLAND  1100   62      30/ 10/ 14 1020.7S
S GREEN BAY BUOY 1200   62 62   50/ 12/ 16 1019.6F
N MID LAKE BUOY  1150   63 64   80/ 16/ 19 1020.4F   4/ 5
NORTHPORT PIER   C1F1C2F2C3F3C4F4C5F5C6F6C7F7C8M1C9M2Ca!



USA.gov is the U.S. government's official web portal to all federal, state and local government web resources and services.